User: anonymous   Login
Location: Melbourne
(37.8666°S, 145.1333°E)
Time: 10:16:40
(UTC+11:00)
Language:

ATLAS CENTAUR R/B - Orbit

View from above orbital plane
View from above orbital plane
View from above satellite
View from above satellite

Ground track
Ground track

The orbit data is extracted from the following two-line orbital elements,

1 28385U 04034B   16010.94061315 0.00060000  00000-0  14806-2 0    04
2 28385  57.3385 216.4795 3843944 214.4221 113.3724  7.80310373    07
Epoch (UTC): 10 January 2016 22:34:28
Eccentricity: 0.3843944
inclination: 57.3385°
perigee height: 232 km
apogee height: 8486 km
right ascension of ascending node: 216.4795°
argument of perigee: 214.4221°
revolutions per day: 7.80310373
mean anomaly at epoch: 113.3724°
orbit number at epoch: 0

The dashed part of the orbit path shows where the satellite is in the earth's shadow,  

DLR